AA1FF Weather Reports


time (UTC)temp
F
wind
direction
speed
knots
gust
knots
rain 1hr
in
rain 24hr
in
rain mn
in
humidity
%
barometer
mb
20260502191343 53 246 1.7 3.5 0.00 0.00 0.16 74 1011.0
20260502190843 53 117 1.7 3.5 0.00 0.00 0.16 76 1011.0
20260502190343 53 97 3.5 5.2 0.00 0.00 0.16 77 1011.0
20260502185843 53 81 2.6 6.1 0.00 0.00 0.16 77 1011.0
20260502185344 53 54 3.5 5.2 0.00 0.00 0.16 75 1011.0
20260502184844 53 59 2.6 6.1 0.00 0.00 0.16 76 1011.0
20260502184344 53 101 0.9 3.5 0.00 0.00 0.16 77 1011.0
20260502183843 53 25 1.7 4.3 0.00 0.00 0.16 77 1011.0
20260502183343 53 109 2.6 3.5 0.00 0.00 0.16 77 1011.0
20260502182844 53 178 2.6 4.3 0.00 0.00 0.16 76 1011.0
20260502182343 53 131 2.6 4.3 0.00 0.00 0.16 76 1011.0
20260502181843 52 227 1.7 2.6 0.00 0.00 0.16 80 1011.0
20260502181343 52 191 2.6 4.3 0.00 0.00 0.16 79 1011.0
20260502180843 51 98 1.7 3.5 0.00 0.00 0.16 81 1011.0
20260502180343 51 78 2.6 4.3 0.00 0.00 0.16 84 1011.0
20260502170343 52 86 1.7 1.7 0.04 0.00 0.15 84 1011.0
20260502164343 52 288 1.7 1.7 0.00 0.00 0.13 85 1011.0
20260502163845 52 261 0.0 0.0 0.02 0.00 0.13 86 1011.0
20260502163343 51 256 0.0 0.9 0.03 0.00 0.13 84 1011.0
20260502162843 51 0 0.0 0.0 0.00 0.00 0.13 84 1011.0
20260502162343 51 0 0.0 0.0 0.01 0.00 0.13 84 1012.0
20260502161843 51 252 1.7 1.7 0.02 0.00 0.12 84 1012.0
20260502161343 51 0 0.0 0.0 0.04 0.00 0.12 84 1012.0
20260502160843 51 294 0.9 1.7 0.00 0.00 0.12 84 1012.0
20260502160343 52 296 1.7 2.6 0.04 0.00 0.11 82 1012.0
20260502152343 53 0 0.0 0.0 0.00 0.00 0.09 75 1012.0
20260502151844 53 48 0.9 2.6 0.00 0.00 0.09 80 1012.0
20260502151343 52 0 0.0 0.0 0.00 0.00 0.09 80 1012.0
20260502150843 52 245 1.7 1.7 0.00 0.00 0.09 82 1012.0
20260502150346 52 228 0.9 1.7 0.00 0.00 0.08 80 1012.0
20260502130344 48 11 0.0 0.9 0.00 0.00 0.05 94 1012.0
20260502123343 47 295 1.7 2.6 0.01 0.00 0.04 91 1013.0
20260502122843 48 307 1.7 1.7 0.01 0.00 0.04 90 1013.0
20260502122344 48 278 0.9 0.9 0.08 0.00 0.03 89 1013.0
20260502121843 48 296 1.7 1.7 0.08 0.00 0.03 88 1013.0
20260502121344 48 0 0.0 0.0 0.00 0.00 0.02 87 1013.0
20260502120843 48 321 0.0 0.9 0.00 0.00 0.02 87 1013.0
20260502120343 48 58 0.0 0.9 0.00 0.00 0.02 86 1013.0
20260502115843 48 240 3.5 4.3 0.03 0.00 0.02 85 1013.0
20260502115343 48 245 0.9 0.9 0.00 0.00 0.02 86 1013.0
20260502114843 47 243 2.6 3.5 0.00 0.00 0.02 85 1013.0
20260502114343 47 206 0.9 1.7 0.00 0.00 0.02 85 1013.0
20260502113844 47 256 2.6 3.5 0.00 0.00 0.02 86 1012.0
20260502113343 47 194 0.0 0.9 0.00 0.00 0.02 86 1012.0
20260502112845 47 150 0.9 1.7 0.00 0.00 0.02 86 1012.0
20260502112343 47 134 0.0 0.9 0.00 0.00 0.03 86 1012.0
20260502111843 47 201 0.9 1.7 0.00 0.00 0.03 86 1012.0
20260502111344 46 22 1.7 1.7 0.00 0.00 0.03 89 1012.0
20260502110843 46 137 0.0 0.9 0.00 0.00 0.03 91 1012.0
20260502110343 46 294 1.7 1.7 0.00 0.00 0.03 90 1012.0
20260502105843 46 229 0.0 0.0 0.00 0.00 0.03 90 1012.0
20260502105343 46 80 0.0 0.0 0.00 0.00 0.03 90 1012.0
20260502104843 46 319 0.0 1.7 0.00 0.00 0.01 89 1012.0
20260502103913 46 313 0.0 0.0 0.00 0.00 0.01 88 1012.0
20260502103344 45 259 1.7 1.7 0.00 0.00 0.01 89 1012.0
20260502102843 45 236 0.0 0.9 0.00 0.00 0.01 89 1012.0
20260502102344 45 283 1.7 1.7 0.00 0.00 0.01 89 1012.0
20260502101843 45 278 1.7 1.7 0.00 0.00 0.01 89 1012.0
20260502101344 45 0 0.0 0.0 0.00 0.00 0.01 90 1012.0
20260502100843 45 0 0.0 0.0 0.00 0.00 0.01 90 1012.0
20260502100344 45 255 0.0 0.0 0.00 0.00 0.01 90 1012.0
20260502091343 45 351 0.0 0.9 0.00 0.00 0.01 89 1011.0
20260502090843 45 259 0.9 1.7 0.00 0.00 0.01 89 1011.0
20260502090343 45 0 0.0 0.0 0.00 0.00 0.01 88 1011.0
20260502071345 47 264 0.0 0.9 0.00 0.00 0.00 81 1011.0
20260502070843 47 0 0.0 0.0 0.00 0.00 0.00 81 1011.0
20260502070343 47 227 0.9 0.9 0.00 0.00 0.00 80 1011.0
20260502065843 47 295 0.9 0.9 0.00 0.00 0.00 80 1011.0
20260502065343 47 0 0.0 0.0 0.00 0.00 0.00 80 1011.0
20260502064843 47 287 0.0 0.0 0.00 0.00 0.00 79 1012.0
20260502064343 47 267 0.9 1.7 0.00 0.00 0.00 80 1012.0
20260502063843 47 255 0.9 1.7 0.00 0.00 0.00 79 1012.0
20260502063344 48 0 0.0 0.0 0.00 0.00 0.00 78 1011.0
20260502062843 48 0 0.0 0.0 0.00 0.00 0.00 78 1012.0
20260502062343 48 125 0.0 0.0 0.00 0.00 0.00 78 1012.0
20260502061843 48 0 0.0 0.0 0.00 0.00 0.00 78 1012.0
20260502061344 48 281 0.0 0.9 0.00 0.00 0.00 78 1012.0
20260502060844 48 277 1.7 1.7 0.00 0.00 0.00 77 1012.0
20260502060343 47 235 1.7 1.7 0.00 0.00 0.00 78 1012.0
20260502055843 47 157 0.0 0.9 0.00 0.00 0.00 78 1012.0
20260502055344 47 94 0.9 1.7 0.00 0.00 0.00 78 1012.0
20260502054844 47 247 0.0 0.9 0.00 0.00 0.00 78 1012.0
20260502054343 47 0 0.0 0.0 0.00 0.00 0.00 78 1012.0
20260502053843 47 303 0.9 0.9 0.00 0.00 0.00 77 1012.0
20260502053343 48 0 0.0 0.0 0.00 0.00 0.00 77 1012.0
20260502052843 48 0 0.0 0.0 0.00 0.00 0.00 77 1012.0
20260502052343 48 305 0.0 0.0 0.00 0.00 0.00 76 1012.0
20260502051844 48 257 0.9 1.7 0.00 0.00 0.00 76 1012.0
20260502051343 48 283 1.7 1.7 0.00 0.00 0.00 76 1012.0
20260502050843 48 0 0.0 0.0 0.00 0.00 0.00 76 1012.0
20260502050344 48 29 0.9 0.9 0.00 0.00 0.00 76 1012.0
20260502045843 48 237 0.9 1.7 0.00 0.00 0.00 77 1012.0
20260502045344 48 253 0.9 1.7 0.00 0.00 0.00 76 1012.0
20260502044844 48 111 0.0 0.0 0.00 0.00 0.00 76 1012.0
20260502044345 48 301 0.0 0.9 0.00 0.00 0.00 76 1012.0
20260502043843 48 0 0.0 0.0 0.00 0.00 0.00 76 1012.0
20260502043343 48 0 0.0 0.0 0.00 0.00 0.00 76 1012.0
20260502042843 48 0 0.0 0.0 0.00 0.00 0.00 75 1012.0
20260502042343 48 303 0.9 0.9 0.00 0.00 0.00 75 1012.0
20260502041843 48 321 0.9 0.9 0.00 0.00 0.00 76 1012.0
20260502041344 48 349 0.0 0.0 0.00 0.00 0.00 74 1012.0
20260502040845 48 326 0.0 0.9 0.00 0.00 0.00 74 1012.0
20260502040343 48 328 0.0 0.9 0.00 0.00 0.00 74 1012.0
20260502035843 48 305 0.9 0.9 0.00 0.00 0.00 74 1012.0
20260502035343 48 0 0.0 0.0 0.00 0.00 0.00 74 1012.0
20260502034843 49 306 0.0 0.9 0.00 0.00 0.00 73 1012.0
20260502034343 49 286 0.0 0.0 0.00 0.00 0.00 72 1012.0
20260502033844 49 255 1.7 1.7 0.00 0.00 0.00 71 1012.0
20260502033343 49 280 0.9 1.7 0.00 0.00 0.00 70 1012.0
20260502032844 49 0 0.0 0.0 0.00 0.00 0.00 70 1012.0
20260502032343 49 250 0.0 0.0 0.00 0.00 0.00 72 1012.0
20260502031843 49 225 0.0 0.9 0.00 0.00 0.00 69 1012.0
20260502031343 49 0 0.0 0.0 0.00 0.00 0.00 69 1012.0
20260502030843 49 0 0.0 0.0 0.00 0.00 0.00 69 1012.0
20260502030343 49 212 0.0 0.0 0.00 0.00 0.00 68 1012.0
20260502025843 49 252 0.0 0.9 0.00 0.00 0.00 68 1012.0
20260502025343 49 242 0.9 1.7 0.00 0.00 0.00 68 1012.0
20260502024843 49 231 0.9 0.9 0.00 0.00 0.00 67 1012.0
20260502024343 49 243 0.9 1.7 0.00 0.00 0.00 69 1012.0
20260502023844 49 250 0.9 1.7 0.00 0.00 0.00 69 1012.0
20260502023343 49 0 0.0 0.0 0.00 0.00 0.00 64 1012.0
20260502022843 49 261 0.0 0.9 0.00 0.00 0.00 64 1012.0
20260502022344 49 101 0.0 0.0 0.00 0.00 0.00 64 1012.0
20260502021844 49 292 0.0 0.9 0.00 0.00 0.00 64 1012.0
20260502021343 49 225 0.0 0.9 0.00 0.00 0.00 65 1012.0
20260502020843 48 213 0.0 0.9 0.00 0.00 0.00 67 1012.0
20260502020343 48 266 0.9 1.7 0.00 0.00 0.00 67 1012.0
20260502015844 48 242 0.0 0.9 0.00 0.00 0.00 67 1012.0
20260502015343 48 0 0.0 0.0 0.00 0.00 0.00 64 1012.0
20260502014844 48 0 0.0 0.0 0.00 0.00 0.00 68 1012.0
20260502014343 49 243 0.9 1.7 0.00 0.00 0.00 68 1012.0
20260502013843 49 277 0.0 0.0 0.00 0.00 0.00 63 1012.0
20260502013344 49 0 0.0 0.0 0.00 0.00 0.00 62 1012.0
20260502012843 49 0 0.0 0.0 0.00 0.00 0.00 62 1012.0
20260502012343 49 276 0.0 0.9 0.00 0.00 0.00 64 1012.0
20260502011843 49 0 0.0 0.0 0.00 0.00 0.00 63 1011.0
20260502011344 49 0 0.0 0.0 0.00 0.00 0.00 66 1011.0
20260502010843 49 229 0.0 0.9 0.00 0.00 0.00 68 1011.0
20260502010343 49 315 0.0 0.0 0.00 0.00 0.00 60 1011.0
20260502005844 49 351 0.0 0.0 0.00 0.00 0.00 61 1011.0
20260502005343 49 138 0.0 1.7 0.00 0.00 0.00 62 1011.0
20260502004844 50 294 0.0 0.9 0.00 0.00 0.00 60 1011.0
20260502004344 50 285 0.9 1.7 0.00 0.00 0.00 60 1011.0
20260502003843 51 224 0.0 0.0 0.00 0.00 0.00 65 1011.0
20260502003343 51 0 0.0 0.0 0.00 0.00 0.00 58 1011.0
20260502002843 52 291 0.0 0.9 0.00 0.00 0.00 55 1011.0
20260502002343 52 290 0.9 1.7 0.00 0.00 0.00 54 1011.0
20260502001843 52 273 1.7 1.7 0.00 0.00 0.00 53 1011.0
20260502001343 53 272 0.9 1.7 0.00 0.00 0.00 51 1010.0
20260502000843 53 268 0.9 0.9 0.00 0.00 0.00 49 1010.0
20260502000344 53 284 0.9 1.7 0.00 0.00 0.00 49 1010.0
20260501235843 54 283 0.0 0.9 0.00 0.00 0.00 48 1010.0
20260501235343 55 296 0.9 1.7 0.00 0.00 0.00 47 1010.0
20260501234843 55 265 0.9 1.7 0.00 0.00 0.00 47 1010.0
20260501234343 56 273 0.9 1.7 0.00 0.00 0.00 45 1010.0
20260501233843 56 267 0.9 1.7 0.00 0.00 0.00 45 1010.0
20260501233343 57 241 0.0 0.9 0.00 0.00 0.00 41 1010.0
20260501232843 58 239 0.0 0.9 0.00 0.00 0.00 40 1010.0
20260501232343 59 259 1.7 2.6 0.00 0.00 0.00 42 1010.0
20260501231843 59 274 0.9 1.7 0.00 0.00 0.00 35 1010.0
20260501231343 60 255 0.9 1.7 0.00 0.00 0.00 37 1010.0
20260501230843 60 281 1.7 1.7 0.00 0.00 0.00 34 1010.0
20260501230344 60 211 3.5 5.2 0.00 0.00 0.00 33 1010.0
20260501225844 60 206 2.6 3.5 0.00 0.00 0.00 33 1010.0
20260501225343 61 200 1.7 2.6 0.00 0.00 0.00 33 1010.0
20260501224844 61 254 3.5 5.2 0.00 0.00 0.00 33 1009.0
20260501224344 62 226 3.5 6.1 0.00 0.00 0.00 32 1009.0
20260501223843 62 205 3.5 7.0 0.00 0.00 0.00 31 1009.0
20260501223343 62 208 3.5 5.2 0.00 0.00 0.00 31 1009.0
20260501222843 62 234 1.7 2.6 0.00 0.00 0.00 32 1009.0
20260501222344 62 205 3.5 7.0 0.00 0.00 0.00 32 1009.0
20260501221843 62 240 4.3 5.2 0.00 0.00 0.00 31 1009.0
20260501221343 62 212 3.5 6.1 0.00 0.00 0.00 31 1009.0
20260501220843 62 239 4.3 8.7 0.00 0.00 0.00 32 1009.0
20260501220344 63 285 3.5 7.0 0.00 0.00 0.00 31 1009.0
20260501215843 64 224 3.5 5.2 0.00 0.00 0.00 31 1009.0
20260501215343 64 186 1.7 3.5 0.00 0.00 0.00 30 1009.0
20260501214843 62 290 2.6 5.2 0.00 0.00 0.00 32 1009.0
20260501214344 62 288 5.2 11.3 0.00 0.00 0.00 30 1009.0
20260501213844 63 328 4.3 6.1 0.00 0.00 0.00 31 1009.0
20260501213343 63 284 4.3 11.3 0.00 0.00 0.00 30 1009.0
20260501212844 63 266 1.7 4.3 0.00 0.00 0.00 32 1009.0
20260501212343 63 285 2.6 5.2 0.00 0.00 0.00 31 1009.0
20260501211843 62 288 1.7 6.1 0.00 0.00 0.00 31 1009.0
20260501211345 62 283 2.6 5.2 0.00 0.00 0.00 31 1009.0
20260501210844 62 236 5.2 7.0 0.00 0.00 0.00 31 1009.0
20260501210345 61 244 5.2 7.0 0.00 0.00 0.00 31 1009.0
20260501205843 61 224 3.5 7.0 0.00 0.00 0.00 32 1009.0
20260501205344 61 207 3.5 5.2 0.00 0.00 0.00 33 1009.0
20260501204843 62 200 7.0 10.4 0.00 0.00 0.00 31 1009.0
20260501204344 63 227 4.3 7.8 0.00 0.00 0.00 30 1009.0
20260501203843 62 241 2.6 3.5 0.00 0.00 0.00 33 1009.0
20260501203343 62 240 4.3 7.0 0.00 0.00 0.00 30 1009.0
20260501202843 62 215 3.5 4.3 0.00 0.00 0.00 31 1009.0
20260501202343 61 224 1.7 2.6 0.00 0.00 0.00 31 1009.0
20260501201844 62 218 6.1 8.7 0.00 0.00 0.00 32 1009.0
20260501201343 62 249 1.7 9.6 0.00 0.00 0.00 32 1009.0
20260501200844 62 195 7.0 9.6 0.00 0.00 0.00 32 1009.0
20260501200347 62 266 2.6 6.1 0.00 0.00 0.00 32 1009.0
20260501195845 62 257 3.5 5.2 0.00 0.00 0.00 32 1009.0
20260501195345 61 237 4.3 7.8 0.00 0.00 0.00 32 1009.0
20260501194843 62 224 6.1 10.4 0.00 0.00 0.00 30 1009.0
20260501194343 62 271 1.7 3.5 0.00 0.00 0.00 31 1009.0
20260501193844 61 226 3.5 7.0 0.00 0.00 0.00 32 1009.0
20260501193343 62 220 4.3 7.0 0.00 0.00 0.00 32 1009.0
20260501192843 61 228 4.3 6.1 0.00 0.00 0.00 33 1009.0
20260501192343 62 124 1.7 3.5 0.00 0.00 0.00 32 1009.0
20260501191844 61 232 5.2 7.8 0.00 0.00 0.00 32 1009.0